Airfield :
LOGIN :

Register | Disclaimer

   EN    FR    IT 

 










Legend :    VFR   Marginal VFR   IFR   Intensive IFR   Very Intensive IFR
Visi :
Ceiling :
>= 8 km
>= 3000ft
5 to 8 km
1000 to 3000 ft
1500m to 5 km
500 to 1000 ft
800 to 1500m
200 to 500 ft
< 800m
< 200 ft
Symbols :   Thunderstorms  Fog  Heavy snow  Heavy precipitations  Wind > 20 kt
SIGMETs :     Misc.  Thunderstorms  Icing  Turbulence  Mountain Waves  Volcanic Ashes







- Airport Elevation : 297 ft
- IATA code : ODB


LEBA - Córdoba

CURRENT METAR :
  • 151800Z 25011KT 210V300 CAVOK 35/15 Q1010

EXPIRED METARs :
  • 151730Z 26010KT 230V300 CAVOK 35/15 Q1010
  • 151700Z 27013KT 230V300 CAVOK 35/16 Q1010
  • 151630Z 27011KT 230V300 CAVOK 36/16 Q1010
  • 151600Z 26012KT 190V290 CAVOK 36/16 Q1011
  • 151530Z 25011KT 220V300 CAVOK 36/16 Q1011

TAF TAF LEBA
Valid from the 15 at 18:00 until the 16 at 03:00 UTC


151700Z 1518/1603 25010KT CAVOK
BECMG 1601/1603 VRB03KT
No reported NOTAMs for that airfield.



MET'MAP, your aeronautical weather chart ! - Copyright ORBIFLY December 2007 - Disclaimer

ORBIFLY MET'MAP TEAM :

Programming & Development : Alexandra Zaïnal
Concept & Development : Baudouin d'Aumeries
Co-Development & Prog : Marc-Olivier Méhu
Technical & hardware support : Manuel Goepfert

Contact : metmap@orbifly.com




SOURCES & CREDITS :

   NOAA